| time (UTC) | temp F | wind direction | speed MPH | gust MPH | rain 1hr in | rain 24hr in | rain mn in | humidity % | barometer mb |
| 20260831120524 | 64 | 236 | 0.0 | 5.0 | 0.00 | 0.00 | 0.00 | 96 | 1006.9 |
| 20260831120024 | 64 | 302 | 1.0 | 5.0 | 0.00 | 0.00 | 0.00 | 96 | 1006.7 |
| 20260831115525 | 64 | 256 | 1.0 | 4.0 | 0.00 | 0.00 | 0.00 | 96 | 1006.6 |
| 20260831115021 | 64 | 244 | 1.0 | 5.0 | 0.00 | 0.00 | 0.00 | 95 | 1006.4 |
| 20260831114622 | 64 | 130 | 2.0 | 5.0 | 0.00 | 0.00 | 0.00 | 95 | 1006.2 |
| 20260831114019 | 64 | 254 | 0.0 | 3.0 | 0.00 | 0.00 | 0.00 | 95 | 1006.3 |
| 20260831113518 | 64 | 240 | 0.0 | 3.0 | 0.00 | 0.00 | 0.00 | 95 | 1006.1 |
| 20260831113017 | 64 | 237 | 1.0 | 3.0 | 0.00 | 0.00 | 0.00 | 95 | 1005.9 |
| 20260831112516 | 64 | 279 | 1.0 | 5.0 | 0.00 | 0.00 | 0.00 | 95 | 1005.9 |
| 20260831112014 | 65 | 241 | 2.0 | 6.0 | 0.00 | 0.00 | 0.00 | 96 | 1005.8 |
| 20260831111514 | 65 | 290 | 1.0 | 4.0 | 0.00 | 0.00 | 0.00 | 96 | 1005.7 |
| 20260831111015 | 65 | 19 | 1.0 | 7.0 | 0.00 | 0.00 | 0.00 | 96 | 1005.7 |
| 20260831110513 | 65 | 33 | 2.0 | 7.0 | 0.00 | 0.00 | 0.00 | 96 | 1005.4 |
| 20260831110012 | 65 | 305 | 1.0 | 5.0 | 0.00 | 0.00 | 0.00 | 96 | 1005.5 |
| 20260831105511 | 65 | 285 | 1.0 | 11.0 | 0.00 | 0.00 | 0.00 | 95 | 1005.4 |
| 20260831105013 | 65 | 292 | 2.0 | 11.0 | 0.00 | 0.00 | 0.00 | 95 | 1005.2 |
| 20260831104511 | 65 | 311 | 1.0 | 4.0 | 0.00 | 0.00 | 0.00 | 95 | 1005.1 |
| 20260831104008 | 65 | 232 | 1.0 | 7.0 | 0.00 | 0.00 | 0.00 | 95 | 1005.2 |
| 20260831103508 | 65 | 304 | 2.0 | 8.0 | 0.00 | 0.00 | 0.00 | 95 | 1005.3 |
| 20260831103007 | 65 | 306 | 2.0 | 12.0 | 0.00 | 0.00 | 0.00 | 96 | 1005.3 |
| 20260831102506 | 65 | 295 | 2.0 | 7.0 | 0.00 | 0.00 | 0.00 | 95 | 1005.3 |
| 20260831102007 | 66 | 277 | 0.0 | 4.0 | 0.00 | 0.00 | 0.00 | 96 | 1005.1 |
| 20260831101505 | 66 | 242 | 2.0 | 4.0 | 0.00 | 0.00 | 0.00 | 96 | 1005.1 |
| 20260831101002 | 66 | 276 | 1.0 | 7.0 | 0.00 | 0.00 | 0.00 | 96 | 1005.0 |
| 20260831100501 | 67 | 288 | 1.0 | 4.0 | 0.00 | 0.00 | 0.00 | 96 | 1004.9 |
| 20260831100002 | 67 | 344 | 1.0 | 4.0 | 0.00 | 0.00 | 0.00 | 96 | 1004.8 |
| 20260831095600 | 67 | 355 | 1.0 | 4.0 | 0.00 | 0.00 | 0.00 | 96 | 1004.8 |
| 20260831095059 | 68 | 221 | 1.0 | 7.0 | 0.00 | 0.00 | 0.00 | 97 | 1004.7 |
| 20260831094559 | 68 | 205 | 2.0 | 10.0 | 0.00 | 0.00 | 0.00 | 97 | 1004.5 |
| 20260831094059 | 68 | 214 | 2.0 | 13.0 | 0.00 | 0.00 | 0.00 | 97 | 1004.5 |
| 20260831093558 | 69 | 246 | 4.0 | 13.0 | 0.00 | 0.00 | 0.00 | 97 | 1004.5 |
| 20260831093057 | 70 | 246 | 5.0 | 11.0 | 0.00 | 0.00 | 0.00 | 98 | 1004.4 |
| 20260831092557 | 69 | 243 | 5.0 | 10.0 | 0.00 | 0.00 | 0.00 | 99 | 1004.2 |
| 20260831092059 | 67 | 239 | 2.0 | 4.0 | 0.00 | 0.00 | 0.00 | 97 | 1004.2 |
| 20260831091555 | 67 | 252 | 2.0 | 3.0 | 0.00 | 0.00 | 0.00 | 96 | 1004.1 |
| 20260831091053 | 68 | 252 | 0.0 | 3.0 | 0.00 | 0.00 | 0.00 | 97 | 1003.8 |
| 20260831090557 | 68 | 252 | 1.0 | 3.0 | 0.00 | 0.00 | 0.00 | 96 | 1003.7 |
| 20260831090052 | 68 | 252 | 0.0 | 0.0 | 0.00 | 0.00 | 0.00 | 96 | 1003.8 |
| 20260831085550 | 68 | 252 | 0.0 | 0.0 | 0.00 | 0.00 | 0.00 | 95 | 1003.8 |
| 20260831085051 | 69 | 252 | 0.0 | 0.0 | 0.00 | 0.00 | 0.00 | 96 | 1003.7 |
| 20260831084555 | 69 | 252 | 0.0 | 0.0 | 0.00 | 0.00 | 0.00 | 96 | 1003.5 |
| 20260831084051 | 69 | 252 | 0.0 | 0.0 | 0.00 | 0.00 | 0.00 | 96 | 1003.4 |
| 20260831083547 | 69 | 252 | 0.0 | 0.0 | 0.00 | 0.00 | 0.00 | 96 | 1003.4 |
| 20260831083049 | 70 | 252 | 0.0 | 0.0 | 0.00 | 0.00 | 0.00 | 96 | 1003.5 |
| 20260831082545 | 70 | 252 | 0.0 | 0.0 | 0.00 | 0.00 | 0.00 | 96 | 1003.5 |
| 20260831082048 | 70 | 252 | 0.0 | 0.0 | 0.00 | 0.00 | 0.00 | 95 | 1003.6 |
| 20260831081605 | 71 | 252 | 0.0 | 0.0 | 0.00 | 0.00 | 0.00 | 96 | 1003.4 |
| 20260831081044 | 71 | 252 | 0.0 | 0.0 | 0.00 | 0.00 | 0.00 | 96 | 1003.5 |
| 20260831080543 | 71 | 252 | 0.0 | 0.0 | 0.00 | 0.00 | 0.00 | 96 | 1003.5 |
| 20260831080043 | 71 | 252 | 0.0 | 0.0 | 0.00 | 0.00 | 0.00 | 96 | 1003.6 |
| 20260831075543 | 71 | 252 | 0.0 | 0.0 | 0.00 | 0.00 | 0.00 | 96 | 1003.4 |
| 20260831075042 | 71 | 252 | 0.0 | 0.0 | 0.00 | 0.00 | 0.00 | 96 | 1003.5 |
| 20260831074546 | 71 | 252 | 0.0 | 0.0 | 0.00 | 0.00 | 0.00 | 96 | 1003.5 |
| 20260831074042 | 71 | 252 | 0.0 | 0.0 | 0.00 | 0.00 | 0.00 | 96 | 1003.6 |
| 20260831073542 | 71 | 252 | 0.0 | 0.0 | 0.00 | 0.00 | 0.00 | 96 | 1003.5 |
| 20260831073111 | 71 | 252 | 0.0 | 0.0 | 0.00 | 0.00 | 0.00 | 96 | 1003.5 |
| 20260831072540 | 71 | 252 | 0.0 | 2.0 | 0.00 | 0.00 | 0.00 | 96 | 1003.6 |
| 20260831072044 | 71 | 252 | 0.0 | 2.0 | 0.00 | 0.00 | 0.00 | 96 | 1003.5 |
| 20260831071540 | 71 | 252 | 0.0 | 1.0 | 0.00 | 0.00 | 0.00 | 96 | 1003.5 |
| 20260831071040 | 71 | 252 | 0.0 | 1.0 | 0.00 | 0.00 | 0.00 | 96 | 1003.4 |
| 20260831070543 | 71 | 252 | 0.0 | 7.0 | 0.00 | 0.00 | 0.00 | 96 | 1003.4 |
| 20260831070040 | 71 | 252 | 2.0 | 7.0 | 0.00 | 0.00 | 0.00 | 96 | 1003.4 |
| 20260831065538 | 71 | 254 | 0.0 | 3.0 | 0.00 | 0.00 | 0.00 | 95 | 1003.1 |
| 20260831065037 | 71 | 254 | 1.0 | 3.0 | 0.00 | 0.00 | 0.00 | 95 | 1003.1 |
| 20260831064540 | 71 | 254 | 1.0 | 3.0 | 0.00 | 0.00 | 0.00 | 95 | 1003.0 |
| 20260831064040 | 71 | 254 | 0.0 | 5.0 | 0.00 | 0.00 | 0.00 | 94 | 1002.9 |
| 20260831063534 | 71 | 254 | 3.0 | 5.0 | 0.00 | 0.00 | 0.00 | 94 | 1002.9 |
| 20260831063035 | 72 | 276 | 0.0 | 0.0 | 0.00 | 0.00 | 0.00 | 95 | 1002.9 |
| 20260831062536 | 72 | 276 | 0.0 | 0.0 | 0.00 | 0.00 | 0.00 | 95 | 1002.9 |
| 20260831062036 | 72 | 276 | 0.0 | 0.0 | 0.00 | 0.00 | 0.00 | 95 | 1003.0 |
| 20260831061537 | 72 | 276 | 0.0 | 3.0 | 0.00 | 0.00 | 0.00 | 95 | 1003.0 |
| 20260831061034 | 72 | 276 | 1.0 | 3.0 | 0.00 | 0.00 | 0.00 | 94 | 1002.8 |
| 20260831060531 | 72 | 275 | 0.0 | 2.0 | 0.00 | 0.00 | 0.00 | 94 | 1002.7 |
| 20260831060031 | 72 | 274 | 0.0 | 0.0 | 0.00 | 0.00 | 0.00 | 94 | 1002.8 |
| 20260831055530 | 72 | 274 | 0.0 | 0.0 | 0.00 | 0.00 | 0.00 | 94 | 1002.8 |
| 20260831055030 | 72 | 274 | 0.0 | 2.0 | 0.00 | 0.00 | 0.00 | 94 | 1002.8 |
| 20260831054528 | 72 | 275 | 1.0 | 2.0 | 0.00 | 0.00 | 0.00 | 94 | 1002.6 |
| 20260831054028 | 72 | 275 | 1.0 | 4.0 | 0.00 | 0.00 | 0.00 | 94 | 1002.6 |
| 20260831053527 | 72 | 272 | 1.0 | 4.0 | 0.00 | 0.00 | 0.00 | 94 | 1002.6 |
| 20260831053033 | 72 | 259 | 0.0 | 4.0 | 0.00 | 0.00 | 0.00 | 94 | 1002.4 |
| 20260831052529 | 72 | 290 | 1.0 | 4.0 | 0.00 | 0.00 | 0.00 | 93 | 1002.4 |
| 20260831052026 | 73 | 331 | 1.0 | 5.0 | 0.00 | 0.00 | 0.00 | 93 | 1002.4 |
| 20260831051527 | 73 | 340 | 2.0 | 5.0 | 0.00 | 0.00 | 0.00 | 93 | 1002.4 |
| 20260831051025 | 73 | 254 | 1.0 | 3.0 | 0.00 | 0.00 | 0.00 | 93 | 1002.5 |
| 20260831050529 | 73 | 167 | 0.0 | 5.0 | 0.00 | 0.00 | 0.00 | 93 | 1002.6 |
| 20260831050038 | 73 | 163 | 1.0 | 5.0 | 0.00 | 0.00 | 0.00 | 93 | 1002.4 |
| 20260831045524 | 73 | 281 | 2.0 | 4.0 | 0.00 | 0.00 | 0.00 | 93 | 1002.4 |
| 20260831045024 | 73 | 243 | 1.0 | 3.0 | 0.00 | 0.00 | 0.00 | 93 | 1002.4 |
| 20260831044523 | 73 | 202 | 1.0 | 4.0 | 0.00 | 0.00 | 0.00 | 93 | 1002.5 |
| 20260831044024 | 73 | 316 | 1.0 | 4.0 | 0.00 | 0.00 | 0.00 | 93 | 1002.4 |
| 20260831043522 | 73 | 318 | 1.0 | 5.0 | 0.00 | 0.00 | 0.00 | 93 | 1002.3 |
| 20260831043025 | 73 | 71 | 1.0 | 5.0 | 0.00 | 0.00 | 0.00 | 93 | 1002.2 |
| 20260831042522 | 73 | 321 | 2.0 | 7.0 | 0.00 | 0.00 | 0.00 | 93 | 1002.2 |
| 20260831042022 | 73 | 292 | 2.0 | 7.0 | 0.00 | 0.00 | 0.00 | 93 | 1002.2 |
| 20260831041525 | 73 | 281 | 2.0 | 4.0 | 0.00 | 0.00 | 0.00 | 93 | 1002.3 |
| 20260831041022 | 73 | 335 | 2.0 | 8.0 | 0.00 | 0.00 | 0.00 | 92 | 1002.3 |
| 20260831040522 | 73 | 290 | 3.0 | 8.0 | 0.00 | 0.00 | 0.00 | 92 | 1002.4 |
| 20260831040041 | 73 | 319 | 2.0 | 5.0 | 0.00 | 0.00 | 0.00 | 92 | 1002.4 |
| 20260831035523 | 73 | 287 | 2.0 | 5.0 | 0.00 | 0.00 | 0.00 | 92 | 1002.7 |
| 20260831035021 | 73 | 301 | 2.0 | 7.0 | 0.00 | 0.00 | 0.00 | 92 | 1002.9 |
| 20260831034530 | 73 | 317 | 2.0 | 7.0 | 0.00 | 0.00 | 0.00 | 92 | 1003.0 |
| 20260831034021 | 73 | 317 | 2.0 | 5.0 | 0.00 | 0.00 | 0.00 | 92 | 1003.2 |
| 20260831033521 | 73 | 17 | 2.0 | 6.0 | 0.00 | 0.00 | 0.00 | 92 | 1003.3 |
| 20260831033021 | 73 | 326 | 2.0 | 4.0 | 0.00 | 0.00 | 0.00 | 92 | 1003.4 |
| 20260831032520 | 73 | 310 | 2.0 | 4.0 | 0.00 | 0.00 | 0.00 | 92 | 1003.5 |
| 20260831032022 | 73 | 307 | 1.0 | 4.0 | 0.00 | 0.00 | 0.00 | 92 | 1003.5 |
| 20260831031524 | 73 | 310 | 2.0 | 5.0 | 0.00 | 0.00 | 0.00 | 92 | 1003.5 |
| 20260831031027 | 73 | 313 | 2.0 | 4.0 | 0.00 | 0.00 | 0.00 | 91 | 1003.6 |
| 20260831030520 | 73 | 339 | 1.0 | 3.0 | 0.00 | 0.00 | 0.00 | 91 | 1003.7 |
| 20260831030038 | 74 | 332 | 0.0 | 3.0 | 0.00 | 0.00 | 0.00 | 91 | 1003.6 |
| 20260831025524 | 74 | 332 | 1.0 | 3.0 | 0.00 | 0.00 | 0.00 | 91 | 1003.6 |
| 20260831025020 | 74 | 229 | 1.0 | 4.0 | 0.00 | 0.00 | 0.00 | 91 | 1003.6 |
| 20260831024519 | 74 | 296 | 1.0 | 5.0 | 0.00 | 0.00 | 0.00 | 91 | 1003.6 |
| 20260831024019 | 73 | 304 | 2.0 | 5.0 | 0.00 | 0.00 | 0.00 | 91 | 1003.7 |
| 20260831023523 | 73 | 304 | 2.0 | 5.0 | 0.00 | 0.00 | 0.00 | 91 | 1003.5 |
| 20260831023018 | 73 | 304 | 1.0 | 4.0 | 0.00 | 0.00 | 0.00 | 91 | 1003.6 |
| 20260831022524 | 74 | 306 | 2.0 | 4.0 | 0.00 | 0.00 | 0.00 | 91 | 1003.6 |
| 20260831022018 | 74 | 302 | 1.0 | 4.0 | 0.00 | 0.00 | 0.00 | 91 | 1003.6 |
| 20260831021519 | 74 | 304 | 1.0 | 4.0 | 0.00 | 0.00 | 0.00 | 90 | 1003.5 |
| 20260831021018 | 74 | 333 | 2.0 | 4.0 | 0.00 | 0.00 | 0.00 | 90 | 1003.4 |
| 20260831020518 | 74 | 288 | 1.0 | 4.0 | 0.00 | 0.00 | 0.00 | 90 | 1003.3 |
| 20260831020017 | 74 | 292 | 1.0 | 4.0 | 0.00 | 0.00 | 0.00 | 90 | 1003.1 |
| 20260831015516 | 74 | 292 | 1.0 | 3.0 | 0.00 | 0.00 | 0.00 | 90 | 1002.9 |
| 20260831015017 | 74 | 283 | 1.0 | 4.0 | 0.00 | 0.00 | 0.00 | 90 | 1002.8 |
| 20260831014517 | 74 | 281 | 2.0 | 4.0 | 0.00 | 0.00 | 0.00 | 90 | 1002.6 |
| 20260831014017 | 74 | 277 | 1.0 | 4.0 | 0.00 | 0.00 | 0.00 | 89 | 1002.4 |
| 20260831013517 | 74 | 277 | 1.0 | 4.0 | 0.00 | 0.00 | 0.00 | 89 | 1002.2 |
| 20260831013016 | 74 | 311 | 2.0 | 4.0 | 0.00 | 0.00 | 0.00 | 89 | 1002.2 |
| 20260831012516 | 74 | 292 | 1.0 | 4.0 | 0.00 | 0.00 | 0.00 | 89 | 1002.3 |
| 20260831012015 | 74 | 312 | 2.0 | 4.0 | 0.00 | 0.00 | 0.00 | 88 | 1002.4 |
| 20260831011517 | 75 | 27 | 2.0 | 5.0 | 0.00 | 0.00 | 0.00 | 88 | 1002.4 |
| 20260831011018 | 75 | 302 | 2.0 | 4.0 | 0.00 | 0.00 | 0.00 | 88 | 1002.5 |
| 20260831010514 | 75 | 275 | 1.0 | 5.0 | 0.00 | 0.00 | 0.00 | 87 | 1002.4 |
| 20260831010013 | 75 | 302 | 2.0 | 5.0 | 0.00 | 0.00 | 0.00 | 87 | 1002.6 |
| 20260831005512 | 75 | 27 | 1.0 | 6.0 | 0.00 | 0.00 | 0.00 | 87 | 1002.7 |
| 20260831005012 | 75 | 336 | 1.0 | 4.0 | 0.00 | 0.00 | 0.00 | 86 | 1002.7 |
| 20260831004518 | 75 | 242 | 1.0 | 4.0 | 0.00 | 0.00 | 0.00 | 86 | 1002.7 |
| 20260831004011 | 76 | 325 | 2.0 | 5.0 | 0.00 | 0.00 | 0.00 | 86 | 1002.7 |
| 20260831003512 | 76 | 288 | 2.0 | 7.0 | 0.00 | 0.00 | 0.00 | 85 | 1002.8 |
| 20260831003016 | 76 | 280 | 2.0 | 7.0 | 0.00 | 0.00 | 0.00 | 85 | 1002.9 |
| 20260831002510 | 76 | 259 | 1.0 | 3.0 | 0.00 | 0.00 | 0.00 | 85 | 1003.0 |
| 20260831002010 | 77 | 259 | 1.0 | 6.0 | 0.00 | 0.00 | 0.00 | 84 | 1003.1 |
| 20260831001512 | 77 | 313 | 3.0 | 6.0 | 0.00 | 0.00 | 0.00 | 84 | 1003.0 |
| 20260831001010 | 77 | 252 | 1.0 | 4.0 | 0.00 | 0.00 | 0.00 | 84 | 1003.0 |
| 20260831000510 | 77 | 292 | 1.0 | 5.0 | 0.00 | 0.00 | 0.00 | 83 | 1003.0 |
| 20260831000010 | 78 | 282 | 1.0 | 7.0 | 0.00 | 0.00 | 0.00 | 82 | 1003.1 |
| 20260830235509 | 78 | 93 | 2.0 | 9.0 | 0.00 | 0.00 | 0.00 | 82 | 1003.0 |
| 20260830235011 | 79 | 267 | 2.0 | 7.0 | 0.00 | 0.00 | 0.00 | 82 | 1002.9 |
| 20260830234510 | 79 | 259 | 3.0 | 7.0 | 0.00 | 0.00 | 0.00 | 81 | 1002.9 |
| 20260830234009 | 79 | 27 | 1.0 | 5.0 | 0.00 | 0.00 | 0.00 | 81 | 1002.8 |
| 20260830233511 | 79 | 311 | 2.0 | 6.0 | 0.00 | 0.00 | 0.00 | 81 | 1002.8 |
| 20260830233015 | 79 | 261 | 2.0 | 6.0 | 0.00 | 0.00 | 0.00 | 81 | 1002.7 |
| 20260830232508 | 79 | 286 | 2.0 | 6.0 | 0.00 | 0.00 | 0.00 | 82 | 1002.8 |
| 20260830232007 | 79 | 308 | 1.0 | 7.0 | 0.00 | 0.00 | 0.00 | 82 | 1002.9 |
| 20260830231506 | 78 | 5 | 2.0 | 6.0 | 0.00 | 0.00 | 0.00 | 82 | 1003.0 |
| 20260830231006 | 78 | 225 | 2.0 | 5.0 | 0.00 | 0.00 | 0.00 | 82 | 1003.0 |
| 20260830230506 | 78 | 196 | 1.0 | 4.0 | 0.00 | 0.00 | 0.00 | 82 | 1003.0 |
| 20260830230006 | 78 | 261 | 1.0 | 4.0 | 0.00 | 0.00 | 0.00 | 82 | 1003.0 |
| 20260830225506 | 78 | 242 | 0.0 | 3.0 | 0.00 | 0.00 | 0.00 | 82 | 1003.0 |
| 20260830225004 | 78 | 234 | 0.0 | 3.0 | 0.00 | 0.00 | 0.00 | 82 | 1003.2 |
| 20260830224504 | 78 | 234 | 1.0 | 5.0 | 0.00 | 0.00 | 0.00 | 81 | 1003.2 |
| 20260830224004 | 78 | 200 | 2.0 | 5.0 | 0.00 | 0.00 | 0.00 | 81 | 1003.3 |
| 20260830223503 | 79 | 292 | 2.0 | 4.0 | 0.00 | 0.00 | 0.00 | 81 | 1003.2 |
| 20260830223003 | 79 | 321 | 1.0 | 4.0 | 0.00 | 0.00 | 0.00 | 81 | 1003.2 |
| 20260830222503 | 79 | 327 | 2.0 | 4.0 | 0.00 | 0.00 | 0.00 | 81 | 1003.2 |
| 20260830222003 | 79 | 92 | 1.0 | 4.0 | 0.00 | 0.00 | 0.00 | 81 | 1003.2 |
| 20260830221503 | 79 | 286 | 1.0 | 7.0 | 0.00 | 0.00 | 0.00 | 80 | 1003.2 |
| 20260830221003 | 79 | 273 | 2.0 | 7.0 | 0.00 | 0.00 | 0.00 | 80 | 1003.2 |
| 20260830220503 | 79 | 300 | 2.0 | 4.0 | 0.00 | 0.00 | 0.00 | 80 | 1003.2 |
| 20260830220006 | 79 | 113 | 1.0 | 4.0 | 0.00 | 0.00 | 0.00 | 80 | 1003.2 |
| 20260830215502 | 79 | 324 | 1.0 | 8.0 | 0.00 | 0.00 | 0.00 | 80 | 1003.2 |
| 20260830215003 | 80 | 311 | 2.0 | 8.0 | 0.00 | 0.00 | 0.00 | 79 | 1003.3 |
| 20260830214501 | 80 | 302 | 2.0 | 8.0 | 0.00 | 0.00 | 0.00 | 78 | 1003.3 |
| 20260830214001 | 80 | 315 | 3.0 | 8.0 | 0.00 | 0.00 | 0.00 | 78 | 1003.3 |
| 20260830213500 | 80 | 307 | 2.0 | 7.0 | 0.00 | 0.00 | 0.00 | 78 | 1003.3 |
| 20260830213100 | 81 | 311 | 2.0 | 7.0 | 0.00 | 0.00 | 0.00 | 78 | 1003.3 |
| 20260830212603 | 81 | 331 | 3.0 | 8.0 | 0.00 | 0.00 | 0.00 | 78 | 1003.3 |
| 20260830212059 | 81 | 342 | 2.0 | 5.0 | 0.00 | 0.00 | 0.00 | 78 | 1003.3 |
| 20260830211558 | 81 | 355 | 2.0 | 6.0 | 0.00 | 0.00 | 0.00 | 79 | 1003.3 |
| 20260830211058 | 80 | 355 | 3.0 | 8.0 | 0.00 | 0.00 | 0.00 | 79 | 1003.4 |
| 20260830210557 | 80 | 337 | 3.0 | 8.0 | 0.00 | 0.00 | 0.00 | 79 | 1003.4 |
| 20260830210056 | 80 | 285 | 3.0 | 8.0 | 0.00 | 0.00 | 0.00 | 78 | 1003.6 |
| 20260830205555 | 80 | 227 | 2.0 | 9.0 | 0.00 | 0.00 | 0.00 | 78 | 1003.6 |
| 20260830205054 | 80 | 292 | 3.0 | 9.0 | 0.00 | 0.00 | 0.00 | 78 | 1003.7 |
| 20260830204559 | 80 | 314 | 3.0 | 8.0 | 0.00 | 0.00 | 0.00 | 78 | 1003.8 |
| 20260830204053 | 80 | 232 | 2.0 | 9.0 | 0.00 | 0.00 | 0.00 | 78 | 1003.8 |
| 20260830203552 | 80 | 265 | 2.0 | 9.0 | 0.00 | 0.00 | 0.00 | 78 | 1003.9 |
| 20260830203051 | 80 | 314 | 3.0 | 9.0 | 0.00 | 0.00 | 0.00 | 79 | 1003.9 |
| 20260830202553 | 80 | 325 | 3.0 | 9.0 | 0.00 | 0.00 | 0.00 | 78 | 1004.0 |
| 20260830202050 | 80 | 341 | 3.0 | 9.0 | 0.00 | 0.00 | 0.00 | 78 | 1004.0 |
| 20260830201558 | 80 | 355 | 4.0 | 7.0 | 0.00 | 0.00 | 0.00 | 79 | 1004.1 |
| 20260830201047 | 80 | 5 | 3.0 | 6.0 | 0.00 | 0.00 | 0.00 | 79 | 1004.1 |
| 20260830200546 | 80 | 193 | 2.0 | 8.0 | 0.00 | 0.00 | 0.00 | 80 | 1004.2 |
| 20260830200049 | 79 | 300 | 2.0 | 8.0 | 0.00 | 0.00 | 0.00 | 81 | 1004.2 |
| 20260830195543 | 78 | 307 | 4.0 | 8.0 | 0.00 | 0.00 | 0.00 | 82 | 1004.2 |
| 20260830195043 | 78 | 348 | 2.0 | 8.0 | 0.00 | 0.00 | 0.00 | 82 | 1004.3 |
| 20260830194542 | 78 | 346 | 3.0 | 6.0 | 0.00 | 0.00 | 0.00 | 82 | 1004.4 |
| 20260830194042 | 78 | 355 | 3.0 | 8.0 | 0.00 | 0.00 | 0.00 | 83 | 1004.6 |
| 20260830193543 | 77 | 5 | 3.0 | 8.0 | 0.00 | 0.00 | 0.00 | 82 | 1004.7 |
| 20260830193039 | 77 | 355 | 2.0 | 7.0 | 0.00 | 0.00 | 0.00 | 82 | 1004.9 |
| 20260830192538 | 77 | 298 | 2.0 | 7.0 | 0.00 | 0.00 | 0.00 | 82 | 1004.9 |
| 20260830192039 | 77 | 227 | 2.0 | 6.0 | 0.00 | 0.00 | 0.00 | 83 | 1004.9 |
| 20260830191613 | 77 | 323 | 3.0 | 6.0 | 0.00 | 0.00 | 0.00 | 82 | 1004.8 |
| 20260830191037 | 77 | 325 | 2.0 | 8.0 | 0.00 | 0.00 | 0.00 | 82 | 1004.9 |
| 20260830190540 | 77 | 349 | 2.0 | 8.0 | 0.00 | 0.00 | 0.00 | 83 | 1004.9 |
| 20260830190045 | 77 | 184 | 3.0 | 6.0 | 0.00 | 0.00 | 0.00 | 83 | 1004.9 |
| 20260830185534 | 77 | 338 | 2.0 | 8.0 | 0.00 | 0.00 | 0.00 | 83 | 1004.9 |
| 20260830185035 | 76 | 279 | 3.0 | 9.0 | 0.00 | 0.00 | 0.00 | 83 | 1005.0 |
| 20260830184536 | 76 | 337 | 3.0 | 9.0 | 0.00 | 0.00 | 0.00 | 83 | 1005.2 |
| 20260830184030 | 76 | 113 | 2.0 | 9.0 | 0.00 | 0.00 | 0.00 | 83 | 1005.2 |
| 20260830183530 | 76 | 312 | 4.0 | 6.0 | 0.00 | 0.00 | 0.00 | 83 | 1005.3 |
| 20260830183030 | 76 | 235 | 3.0 | 7.0 | 0.00 | 0.00 | 0.00 | 84 | 1005.2 |
| 20260830182532 | 76 | 297 | 2.0 | 8.0 | 0.00 | 0.00 | 0.00 | 84 | 1005.1 |
| 20260830182027 | 75 | 222 | 3.0 | 9.0 | 0.00 | 0.00 | 0.00 | 84 | 1005.0 |
| 20260830181528 | 75 | 267 | 2.0 | 10.0 | 0.00 | 0.00 | 0.00 | 84 | 1005.0 |
| 20260830181025 | 75 | 313 | 3.0 | 10.0 | 0.00 | 0.00 | 0.00 | 84 | 1005.2 |
| 20260830180525 | 75 | 333 | 2.0 | 6.0 | 0.00 | 0.00 | 0.00 | 84 | 1005.1 |
| 20260830180033 | 75 | 331 | 2.0 | 5.0 | 0.00 | 0.00 | 0.00 | 84 | 1005.0 |
| 20260830175522 | 75 | 9 | 2.0 | 9.0 | 0.00 | 0.00 | 0.00 | 86 | 1005.0 |
| 20260830175026 | 74 | 286 | 3.0 | 9.0 | 0.00 | 0.00 | 0.00 | 87 | 1005.2 |
| 20260830174520 | 73 | 306 | 2.0 | 7.0 | 0.00 | 0.00 | 0.00 | 87 | 1005.3 |
| 20260830174022 | 73 | 340 | 3.0 | 8.0 | 0.00 | 0.00 | 0.00 | 87 | 1005.4 |
| 20260830173517 | 73 | 355 | 2.0 | 8.0 | 0.00 | 0.00 | 0.00 | 88 | 1005.4 |
| 20260830173015 | 72 | 292 | 2.0 | 11.0 | 0.00 | 0.00 | 0.00 | 87 | 1005.5 |
| 20260830172519 | 72 | 302 | 3.0 | 11.0 | 0.00 | 0.00 | 0.00 | 88 | 1005.6 |
| 20260830172016 | 72 | 335 | 3.0 | 8.0 | 0.00 | 0.00 | 0.00 | 88 | 1005.5 |
| 20260830171512 | 72 | 351 | 3.0 | 8.0 | 0.00 | 0.00 | 0.00 | 88 | 1005.6 |
| 20260830171010 | 72 | 216 | 3.0 | 9.0 | 0.00 | 0.00 | 0.00 | 89 | 1005.5 |
| 20260830170510 | 71 | 306 | 3.0 | 9.0 | 0.00 | 0.00 | 0.00 | 89 | 1005.6 |
| 20260830170010 | 71 | 281 | 3.0 | 9.0 | 0.00 | 0.00 | 0.00 | 89 | 1005.6 |
| 20260830165508 | 71 | 300 | 3.0 | 6.0 | 0.00 | 0.00 | 0.00 | 90 | 1005.5 |
| 20260830165012 | 71 | 339 | 2.0 | 6.0 | 0.00 | 0.00 | 0.00 | 90 | 1005.5 |
| 20260830164506 | 70 | 5 | 2.0 | 9.0 | 0.00 | 0.00 | 0.00 | 90 | 1005.5 |
| 20260830164006 | 70 | 344 | 4.0 | 9.0 | 0.00 | 0.00 | 0.00 | 90 | 1005.6 |
| 20260830163505 | 71 | 305 | 3.0 | 11.0 | 0.00 | 0.00 | 0.00 | 91 | 1005.6 |
| 20260830163015 | 70 | 5 | 2.0 | 11.0 | 0.00 | 0.00 | 0.00 | 91 | 1005.6 |
| 20260830162504 | 70 | 355 | 3.0 | 9.0 | 0.00 | 0.00 | 0.00 | 91 | 1005.5 |
| 20260830162003 | 70 | 15 | 4.0 | 10.0 | 0.00 | 0.00 | 0.00 | 91 | 1005.4 |
| 20260830161502 | 70 | 303 | 5.0 | 10.0 | 0.00 | 0.00 | 0.00 | 91 | 1005.4 |
| 20260830161004 | 70 | 355 | 3.0 | 9.0 | 0.00 | 0.00 | 0.00 | 92 | 1005.4 |
| 20260830160502 | 70 | 355 | 4.0 | 9.0 | 0.00 | 0.00 | 0.00 | 92 | 1005.4 |
| 20260830160001 | 69 | 355 | 3.0 | 9.0 | 0.00 | 0.00 | 0.00 | 92 | 1005.5 |
| 20260830155603 | 69 | 360 | 5.0 | 9.0 | 0.00 | 0.00 | 0.00 | 92 | 1005.6 |
| 20260830155101 | 69 | 5 | 3.0 | 10.0 | 0.00 | 0.00 | 0.00 | 92 | 1005.7 |
| 20260830154502 | 69 | 349 | 4.0 | 10.0 | 0.00 | 0.00 | 0.00 | 92 | 1005.7 |
| 20260830154100 | 69 | 355 | 5.0 | 8.0 | 0.00 | 0.00 | 0.00 | 92 | 1005.7 |
| 20260830153559 | 69 | 355 | 4.0 | 6.0 | 0.00 | 0.00 | 0.00 | 93 | 1005.7 |
| 20260830153102 | 69 | 315 | 2.0 | 10.0 | 0.00 | 0.00 | 0.00 | 93 | 1005.7 |
| 20260830153001 | 69 | 344 | 3.0 | 10.0 | 0.00 | 0.00 | 0.00 | 93 | 1005.7 |
| 20260830152559 | 69 | 355 | 5.0 | 10.0 | 0.00 | 0.00 | 0.00 | 93 | 1005.7 |
| 20260830152059 | 69 | 355 | 5.0 | 9.0 | 0.00 | 0.00 | 0.00 | 93 | 1005.7 |
| 20260830151559 | 69 | 10 | 1.0 | 12.0 | 0.00 | 0.00 | 0.00 | 93 | 1005.8 |
| 20260830151059 | 69 | 5 | 4.0 | 12.0 | 0.00 | 0.00 | 0.00 | 93 | 1005.7 |
| 20260830150600 | 69 | 5 | 3.0 | 12.0 | 0.00 | 0.00 | 0.00 | 93 | 1005.7 |
| 20260830150100 | 69 | 355 | 3.0 | 10.0 | 0.00 | 0.00 | 0.00 | 93 | 1005.8 |
| 20260830145557 | 69 | 351 | 4.0 | 10.0 | 0.00 | 0.00 | 0.00 | 93 | 1005.9 |
| 20260830145101 | 69 | 360 | 3.0 | 8.0 | 0.00 | 0.00 | 0.00 | 93 | 1005.7 |
| 20260830144608 | 69 | 355 | 4.0 | 12.0 | 0.00 | 0.00 | 0.00 | 93 | 1005.9 |
| 20260830144057 | 69 | 11 | 4.0 | 10.0 | 0.00 | 0.00 | 0.00 | 93 | 1005.9 |
| 20260830143559 | 69 | 355 | 4.0 | 10.0 | 0.00 | 0.00 | 0.00 | 93 | 1006.0 |
| 20260830143057 | 69 | 360 | 3.0 | 10.0 | 0.00 | 0.00 | 0.00 | 94 | 1006.0 |
| 20260830142557 | 68 | 355 | 5.0 | 10.0 | 0.00 | 0.00 | 0.00 | 94 | 1006.1 |
| 20260830142057 | 69 | 355 | 5.0 | 9.0 | 0.00 | 0.00 | 0.00 | 94 | 1006.1 |
| 20260830141557 | 68 | 355 | 3.0 | 11.0 | 0.00 | 0.00 | 0.00 | 94 | 1006.2 |
| 20260830141056 | 68 | 350 | 3.0 | 11.0 | 0.00 | 0.00 | 0.00 | 94 | 1006.3 |
| 20260830140556 | 68 | 360 | 4.0 | 10.0 | 0.00 | 0.00 | 0.00 | 94 | 1006.2 |
| 20260830135555 | 68 | 360 | 4.0 | 10.0 | 0.00 | 0.00 | 0.00 | 95 | 1006.1 |
| 20260830135055 | 68 | 9 | 3.0 | 10.0 | 0.00 | 0.00 | 0.00 | 95 | 1006.0 |
| 20260830134555 | 68 | 5 | 4.0 | 10.0 | 0.00 | 0.00 | 0.00 | 95 | 1006.2 |
| 20260830134054 | 68 | 5 | 4.0 | 10.0 | 0.00 | 0.00 | 0.00 | 95 | 1006.3 |
| 20260830133555 | 68 | 360 | 3.0 | 8.0 | 0.00 | 0.00 | 0.00 | 95 | 1006.3 |
| 20260830133102 | 68 | 360 | 2.0 | 8.0 | 0.00 | 0.00 | 0.00 | 95 | 1006.2 |
| 20260830132554 | 67 | 360 | 4.0 | 8.0 | 0.00 | 0.00 | 0.00 | 95 | 1006.3 |
| 20260830132054 | 67 | 9 | 3.0 | 8.0 | 0.00 | 0.00 | 0.00 | 95 | 1006.3 |
| 20260830131557 | 67 | 5 | 4.0 | 8.0 | 0.00 | 0.00 | 0.00 | 96 | 1006.3 |
| 20260830131053 | 67 | 5 | 4.0 | 8.0 | 0.00 | 0.00 | 0.00 | 96 | 1006.2 |
| 20260830130553 | 67 | 360 | 5.0 | 10.0 | 0.00 | 0.00 | 0.00 | 96 | 1006.3 |
| 20260830130105 | 67 | 5 | 4.0 | 10.0 | 0.00 | 0.00 | 0.00 | 96 | 1006.3 |
| 20260830125552 | 67 | 355 | 4.0 | 8.0 | 0.00 | 0.21 | 0.00 | 96 | 1006.3 |
| 20260830125052 | 67 | 346 | 2.0 | 6.0 | 0.00 | 0.21 | 0.00 | 96 | 1006.1 |
| 20260830124552 | 67 | 336 | 3.0 | 5.0 | 0.00 | 0.21 | 0.00 | 96 | 1006.0 |
| 20260830124153 | 67 | 286 | 2.0 | 5.0 | 0.00 | 0.21 | 0.00 | 96 | 1006.1 |
| 20260830123554 | 67 | 313 | 2.0 | 8.0 | 0.00 | 0.21 | 0.00 | 96 | 1006.1 |
| 20260830123054 | 67 | 355 | 1.0 | 5.0 | 0.00 | 0.21 | 0.00 | 96 | 1006.0 |
| 20260830122552 | 67 | 360 | 2.0 | 5.0 | 0.00 | 0.21 | 0.00 | 96 | 1006.1 |
| 20260830122052 | 67 | 360 | 2.0 | 8.0 | 0.00 | 0.21 | 0.00 | 96 | 1006.0 |
| 20260830121551 | 67 | 19 | 4.0 | 6.0 | 0.00 | 0.21 | 0.00 | 96 | 1006.0 |
| 20260830121050 | 67 | 5 | 2.0 | 6.0 | 0.00 | 0.21 | 0.00 | 96 | 1006.1 |